Regional Weather Roundup
Issued by NWS Albany, NY

Home | Current Version | Previous Version | Graphics & Text | Print | Product List | Glossary On
Versions: 1 2 3 4 5 6 7 8 9 10 11 12 13 14 15 16 17 18 19 20 21 22 23 24 25 26 27 28
000
ASUS41 KALY 161910
RWRALY

NEW YORK STATE HOURLY WEATHER ROUNDUP
NATIONAL WEATHER SERVICE ALBANY NY
200 PM EST FRI FEB 16 2018

NOTE: "FAIR" INDICATES FEW OR NO CLOUDS BELOW 12,000 FEET WITH NO
SIGNIFICANT WEATHER AND/OR NO OBSTRUCTIONS TO VISIBILITY.

NYZ032-033-038>043-046>054-057>066-NYZ062>081-082-084-162000-
EAST


CITY           SKY/WX    TMP DP  RH WIND       PRES   REMARKS
ALBANY         CLOUDY    43  34  70 W18       29.67R
GLENS FALLS    CLOUDY    42  37  82 SW7       29.61S
POUGHKEEPSIE   CLOUDY    52  41  66 NW9       29.63R
NEWBURGH       LGT RAIN  52  46  82 W14G23    29.65R
MONTGOMERY     CLOUDY    50  41  71 NW8G22    29.64R
WHITE PLAINS   LGT RAIN  54  44  69 NW17G23   29.61F
ISLIP          CLOUDY    58  48  69 NW13      29.61S
NEW YORK CITY  CLOUDY    59  45  59 W16G22    29.61F
CENTRAL PARK   CLOUDY    58  45  62 NW7G18    29.64F
$$

NYZ005>009-017-018-044>046-055-056-162000-
CENTRAL


CITY           SKY/WX    TMP DP  RH WIND       PRES   REMARKS
FULTON         CLOUDY    35  32  88 W20G28    29.82R WCI  24
SYRACUSE       CLOUDY    36  34  92 W15G29    29.81R WCI  27
ROME           CLOUDY    35  32  88 W23       29.77R WCI  23
ELMIRA         CLOUDY    38  30  73 NW13G20   29.82R WCI  30
BINGHAMTON     CLOUDY    32  30  92 NW14G32   29.76R WCI  22
MONTICELLO     LGT RAIN  41  38  89 NW12G23   29.68R
$$

NYZ026>034-041>043-087-162000-
NORTH


CITY           SKY/WX    TMP DP  RH WIND       PRES   REMARKS
WATERTOWN      CLOUDY    34  32  92 NW6       29.80R WCI  29
FORT DRUM      NOT AVBL
OGDENSBURG     CLOUDY    30  25  79 NW14      29.80R WCI  20
MASSENA        FLURRIES  28  24  85 NW14      29.78R WCI  17
SARANAC LAKE   SNOW      29  28  96 VRB7G17   29.63R VSB 1/2 WCI  22
PLATTSBURGH    LGT RAIN  36  31  82 NW14      29.66R WCI  27
$$

NYZ001>004-010>016-019>021-085-162000-
WEST


CITY           SKY/WX    TMP DP  RH WIND       PRES   REMARKS
NIAGARA FALLS  PTSUNNY   36  23  59 NW16      29.95R WCI  26
BUFFALO        PTSUNNY   35  26  69 W13       29.94R WCI  26
DUNKIRK        FAIR      33  27  78 W14G24    29.99R WCI  23
JAMESTOWN        N/A    N/A N/A N/A MISG        N/A
WELLSVILLE     CLOUDY    31  27  85 NW16G36   29.85R WCI  20
ROCHESTER      PTSUNNY   34  25  69 NW21G30   29.89R WCI  22
PENN YAN       CLOUDY    35  28  75 NW8G17    29.84R WCI  29
$$

             KEY
       WCI = WIND CHILL INDEX
       VSB = VISIBILITY
       HX  = HEAT INDEX
$$




USA.gov is the U.S. government's official web portal to all federal, state and local government web resources and services.